Find Starlink 3114

NORAD ID: 49426 Int'l Des: 2021-104 Owner: SPXS Country: US Constellation: starlink operational
LEOCIRCULAR

当前视图

正在加载3D地球...

About Starlink 3114

Starlink 3114 (NORAD 49426) is a starlink constellation satellite (v1.5) launched Nov 13, 2021 by SPXS of US. It operates in LEO, CIRCULAR orbit with a mass of 290.00 kg.

即将过境

Passes for default location (London). Set your location on the main map for personalized predictions.

高度历史

Loading altitude history...

两行轨道根数

1 49426U 21104U 26263.11102632 .00000720 00000-0 32453-4 0 9998
2 49426 53.1605 63.1930 0001193 92.2739 267.8400 15.34383361268151
Epoch: Sep 20, 2026 • Age: 12 hours

当前状态

高度 482.1 km
远地点 / 近地点 N/A
速度 7.62 km/s
星下点 -53.16°S, 115.37°E
发射日期 Nov 13, 2021
运行时间 4.8 years
类型 internet

技术详情

分类 Payload
质量 290.00 kg
干质量 270.00 kg
长度 0.20 m
跨度 9.00 m
形状 ? Box + pan
制造商 SPXS
平台类型 Starlink
阶段状态 In Orbit
所有者/国家 SPXS/US

Most Searched